| time (UTC) | temp F | wind direction | speed MPH | gust MPH | rain 1hr in | rain 24hr in | rain mn in | humidity % | barometer mb |
| 20260831200119 | 82 | 133 | 6.0 | 14.0 | 0.00 | 0.12 | 0.12 | 65 | 1014.7 |
| 20260831195219 | 81 | 140 | 5.0 | 14.0 | 0.00 | 0.12 | 0.12 | 65 | 1014.7 |
| 20260831194319 | 81 | 139 | 4.0 | 14.0 | 0.00 | 0.12 | 0.12 | 65 | 1014.6 |
| 20260831193419 | 81 | 131 | 5.0 | 12.0 | 0.00 | 0.12 | 0.12 | 67 | 1014.8 |
| 20260831191619 | 80 | 112 | 4.0 | 14.0 | 0.00 | 0.12 | 0.12 | 71 | 1015.0 |
| 20260831190719 | 80 | 124 | 4.0 | 10.0 | 0.00 | 0.12 | 0.12 | 71 | 1014.9 |
| 20260831185819 | 80 | 144 | 4.0 | 11.0 | 0.00 | 0.12 | 0.12 | 70 | 1015.0 |
| 20260831184919 | 79 | 154 | 5.0 | 10.0 | 0.00 | 0.12 | 0.12 | 70 | 1015.3 |
| 20260831183119 | 79 | 153 | 5.0 | 11.0 | 0.00 | 0.12 | 0.12 | 75 | 1014.9 |
| 20260831182219 | 79 | 149 | 3.0 | 13.0 | 0.00 | 0.12 | 0.12 | 76 | 1014.8 |
| 20260831181319 | 79 | 123 | 4.0 | 9.0 | 0.00 | 0.12 | 0.12 | 78 | 1014.9 |
| 20260831180419 | 78 | 104 | 4.0 | 9.0 | 0.00 | 0.12 | 0.12 | 82 | 1015.0 |
| 20260831175519 | 78 | 96 | 4.0 | 6.0 | 0.00 | 0.12 | 0.12 | 84 | 1015.3 |
| 20260831174619 | 77 | 86 | 5.0 | 9.0 | 0.00 | 0.12 | 0.12 | 84 | 1015.5 |
| 20260831173719 | 77 | 75 | 3.0 | 9.0 | 0.00 | 0.12 | 0.12 | 84 | 1015.6 |
| 20260831172819 | 77 | 60 | 3.0 | 8.0 | 0.00 | 0.12 | 0.12 | 84 | 1015.9 |
| 20260831171919 | 77 | 67 | 4.0 | 8.0 | 0.00 | 0.12 | 0.12 | 84 | 1015.6 |
| 20260831171019 | 76 | 70 | 4.0 | 7.0 | 0.01 | 0.12 | 0.12 | 84 | 1015.3 |
| 20260831170119 | 76 | 78 | 5.0 | 9.0 | 0.02 | 0.12 | 0.12 | 84 | 1015.2 |
| 20260831165219 | 75 | 90 | 6.0 | 11.0 | 0.03 | 0.12 | 0.12 | 85 | 1015.3 |
| 20260831164319 | 76 | 80 | 5.0 | 10.0 | 0.05 | 0.12 | 0.12 | 85 | 1015.3 |
| 20260831162519 | 75 | 63 | 5.0 | 12.0 | 0.09 | 0.12 | 0.12 | 85 | 1015.1 |
| 20260831161619 | 75 | 65 | 5.0 | 10.0 | 0.10 | 0.12 | 0.12 | 85 | 1015.1 |
| 20260831160719 | 75 | 60 | 6.0 | 11.0 | 0.10 | 0.11 | 0.11 | 85 | 1015.1 |
| 20260831155819 | 75 | 85 | 8.0 | 13.0 | 0.09 | 0.10 | 0.10 | 85 | 1015.0 |
| 20260831154919 | 75 | 89 | 6.0 | 13.0 | 0.07 | 0.08 | 0.08 | 84 | 1014.8 |
| 20260831154019 | 76 | 88 | 4.0 | 9.0 | 0.05 | 0.06 | 0.06 | 84 | 1015.2 |
| 20260831153119 | 76 | 102 | 3.0 | 8.0 | 0.03 | 0.04 | 0.04 | 83 | 1015.4 |
| 20260831152219 | 76 | 125 | 1.0 | 7.0 | 0.02 | 0.02 | 0.03 | 81 | 1015.4 |
| 20260831151319 | 76 | 131 | 3.0 | 7.0 | 0.01 | 0.01 | 0.01 | 79 | 1015.5 |
| 20260831150419 | 76 | 121 | 5.0 | 12.0 | 0.01 | 0.01 | 0.01 | 78 | 1015.2 |
| 20260831145519 | 76 | 123 | 5.0 | 12.0 | 0.01 | 0.01 | 0.01 | 79 | 1015.0 |
| 20260831144619 | 77 | 123 | 3.0 | 12.0 | 0.01 | 0.01 | 0.01 | 79 | 1014.7 |
| 20260831143719 | 77 | 125 | 4.0 | 10.0 | 0.01 | 0.01 | 0.01 | 78 | 1014.7 |
| 20260831142819 | 78 | 118 | 6.0 | 11.0 | 0.00 | 0.00 | 0.00 | 76 | 1014.5 |
| 20260831141919 | 79 | 113 | 8.0 | 13.0 | 0.00 | 0.00 | 0.00 | 71 | 1014.2 |
| 20260831141019 | 79 | 108 | 9.0 | 15.0 | 0.00 | 0.00 | 0.00 | 69 | 1014.1 |
| 20260831140119 | 80 | 103 | 9.0 | 19.0 | 0.00 | 0.00 | 0.00 | 68 | 1013.6 |
| 20260831135219 | 81 | 103 | 8.0 | 17.0 | 0.00 | 0.00 | 0.00 | 66 | 1013.2 |
| 20260831134319 | 81 | 105 | 6.0 | 17.0 | 0.00 | 0.00 | 0.00 | 63 | 1013.1 |
| 20260831133419 | 82 | 106 | 2.0 | 11.0 | 0.00 | 0.00 | 0.00 | 61 | 1012.7 |
| 20260831132519 | 81 | 136 | 2.0 | 5.0 | 0.00 | 0.00 | 0.00 | 62 | 1012.7 |
| 20260831131619 | 81 | 148 | 3.0 | 9.0 | 0.00 | 0.00 | 0.00 | 63 | 1012.4 |
| 20260831130719 | 81 | 155 | 3.0 | 10.0 | 0.00 | 0.00 | 0.00 | 64 | 1012.1 |
| 20260831125819 | 81 | 155 | 4.0 | 9.0 | 0.00 | 0.00 | 0.00 | 64 | 1012.1 |
| 20260831124919 | 81 | 158 | 3.0 | 12.0 | 0.00 | 0.00 | 0.00 | 64 | 1012.0 |
| 20260831124018 | 81 | 166 | 4.0 | 9.0 | 0.00 | 0.00 | 0.00 | 63 | 1012.0 |
| 20260831123118 | 81 | 154 | 3.0 | 9.0 | 0.00 | 0.00 | 0.00 | 63 | 1011.8 |
| 20260831122219 | 81 | 163 | 2.0 | 6.0 | 0.00 | 0.00 | 0.00 | 63 | 1011.6 |
| 20260831121318 | 81 | 193 | 3.0 | 9.0 | 0.00 | 0.00 | 0.00 | 64 | 1011.5 |
| 20260831120418 | 82 | 171 | 1.0 | 9.0 | 0.00 | 0.00 | 0.00 | 62 | 1011.3 |
| 20260831114619 | 81 | 38 | 0.0 | 2.0 | 0.00 | 0.00 | 0.00 | 59 | 1010.9 |
| 20260831113718 | 81 | 38 | 1.0 | 2.0 | 0.00 | 0.00 | 0.00 | 60 | 1010.8 |
| 20260831112818 | 81 | 45 | 2.0 | 6.0 | 0.00 | 0.00 | 0.00 | 59 | 1010.8 |
| 20260831111919 | 81 | 46 | 3.0 | 6.0 | 0.00 | 0.00 | 0.00 | 59 | 1010.8 |
| 20260831111019 | 81 | 57 | 4.0 | 11.0 | 0.00 | 0.00 | 0.00 | 59 | 1010.8 |
| 20260831110119 | 82 | 61 | 4.0 | 11.0 | 0.00 | 0.00 | 0.00 | 58 | 1010.7 |
| 20260831105219 | 82 | 57 | 3.0 | 12.0 | 0.00 | 0.00 | 0.00 | 58 | 1010.5 |
| 20260831104318 | 81 | 61 | 4.0 | 9.0 | 0.00 | 0.00 | 0.00 | 58 | 1010.3 |
| 20260831103419 | 81 | 49 | 4.0 | 9.0 | 0.00 | 0.00 | 0.00 | 59 | 1009.9 |
| 20260831102518 | 81 | 44 | 5.0 | 13.0 | 0.00 | 0.00 | 0.00 | 60 | 1009.7 |
| 20260831101618 | 81 | 55 | 4.0 | 13.0 | 0.00 | 0.00 | 0.00 | 60 | 1009.6 |
| 20260831100719 | 81 | 68 | 3.0 | 8.0 | 0.00 | 0.00 | 0.00 | 59 | 1009.9 |
| 20260831094918 | 81 | 71 | 6.0 | 14.0 | 0.00 | 0.00 | 0.00 | 58 | 1009.7 |
| 20260831094018 | 81 | 67 | 7.0 | 13.0 | 0.00 | 0.00 | 0.00 | 57 | 1009.8 |
| 20260831092218 | 80 | 75 | 8.0 | 18.0 | 0.00 | 0.00 | 0.00 | 60 | 1010.1 |
| 20260831091318 | 80 | 82 | 11.0 | 19.0 | 0.00 | 0.00 | 0.00 | 62 | 1010.1 |
| 20260831090418 | 80 | 78 | 10.0 | 20.0 | 0.00 | 0.00 | 0.00 | 63 | 1010.3 |
| 20260831085518 | 80 | 71 | 10.0 | 18.0 | 0.00 | 0.00 | 0.00 | 64 | 1010.5 |
| 20260831084618 | 80 | 69 | 9.0 | 17.0 | 0.00 | 0.00 | 0.00 | 65 | 1010.3 |
| 20260831083718 | 80 | 76 | 9.0 | 17.0 | 0.00 | 0.00 | 0.00 | 65 | 1010.5 |
| 20260831081918 | 81 | 61 | 6.0 | 14.0 | 0.00 | 0.00 | 0.00 | 63 | 1010.6 |
| 20260831081018 | 81 | 60 | 5.0 | 12.0 | 0.00 | 0.00 | 0.00 | 64 | 1010.8 |
| 20260831080118 | 81 | 49 | 4.0 | 12.0 | 0.00 | 0.00 | 0.00 | 65 | 1010.7 |
| 20260831075218 | 81 | 24 | 5.0 | 9.0 | 0.00 | 0.00 | 0.00 | 67 | 1010.9 |
| 20260831074318 | 81 | 341 | 7.0 | 14.0 | 0.00 | 0.00 | 0.00 | 67 | 1010.9 |
| 20260831073418 | 80 | 337 | 5.0 | 14.0 | 0.00 | 0.00 | 0.00 | 69 | 1010.8 |
| 20260831072518 | 80 | 357 | 6.0 | 15.0 | 0.00 | 0.00 | 0.00 | 69 | 1011.1 |
| 20260831070718 | 82 | 30 | 9.0 | 18.0 | 0.00 | 0.00 | 0.00 | 68 | 1010.5 |
| 20260831065818 | 82 | 354 | 10.0 | 22.0 | 0.00 | 0.00 | 0.00 | 67 | 1010.5 |
| 20260831064918 | 82 | 345 | 10.0 | 20.0 | 0.00 | 0.00 | 0.00 | 67 | 1009.9 |
| 20260831064018 | 82 | 339 | 9.0 | 25.0 | 0.00 | 0.00 | 0.00 | 68 | 1009.8 |
| 20260831063118 | 82 | 349 | 11.0 | 21.0 | 0.00 | 0.00 | 0.00 | 68 | 1009.7 |
| 20260831062218 | 82 | 346 | 10.0 | 21.0 | 0.00 | 0.00 | 0.00 | 65 | 1009.6 |
| 20260831061318 | 83 | 347 | 8.0 | 22.0 | 0.00 | 0.00 | 0.00 | 61 | 1009.8 |
| 20260831060418 | 83 | 358 | 6.0 | 20.0 | 0.00 | 0.00 | 0.00 | 62 | 1009.9 |
| 20260831054618 | 85 | 271 | 3.0 | 10.0 | 0.00 | 0.00 | 0.00 | 60 | 1009.1 |
| 20260831052818 | 83 | 253 | 7.0 | 14.0 | 0.00 | 0.00 | 0.00 | 64 | 1008.9 |
| 20260831051018 | 82 | 229 | 7.0 | 21.0 | 0.00 | 0.00 | 0.00 | 65 | 1009.6 |
| 20260831045218 | 85 | 213 | 8.0 | 20.0 | 0.00 | 0.00 | 0.00 | 56 | 1010.0 |
| 20260831044318 | 86 | 198 | 11.0 | 21.0 | 0.00 | 0.00 | 0.00 | 55 | 1009.7 |
| 20260831043418 | 87 | 201 | 10.0 | 26.0 | 0.00 | 0.00 | 0.00 | 52 | 1009.3 |
| 20260831041618 | 89 | 202 | 9.0 | 21.0 | 0.00 | 0.00 | 0.00 | 46 | 1009.0 |
| 20260831040718 | 91 | 201 | 7.0 | 22.0 | 0.00 | 0.00 | 0.00 | 46 | 1008.9 |
| 20260831035818 | 92 | 201 | 8.0 | 22.0 | 0.00 | 0.00 | 0.00 | 45 | 1008.6 |
| 20260831034918 | 94 | 206 | 7.0 | 20.0 | 0.00 | 0.00 | 0.00 | 41 | 1008.6 |
| 20260831033118 | 100 | 306 | 1.0 | 5.0 | 0.00 | 0.00 | 0.00 | 32 | 1007.6 |
| 20260831032218 | 100 | 344 | 1.0 | 4.0 | 0.00 | 0.00 | 0.00 | 32 | 1007.5 |
| 20260831031318 | 100 | 341 | 1.0 | 3.0 | 0.00 | 0.00 | 0.00 | 32 | 1007.4 |
| 20260831030418 | 101 | 327 | 2.0 | 5.0 | 0.00 | 0.00 | 0.00 | 32 | 1007.3 |
| 20260831025518 | 101 | 302 | 3.0 | 6.0 | 0.00 | 0.00 | 0.00 | 32 | 1007.1 |
| 20260831024618 | 101 | 292 | 3.0 | 9.0 | 0.00 | 0.00 | 0.00 | 32 | 1007.2 |
| 20260831023718 | 101 | 301 | 2.0 | 8.0 | 0.00 | 0.00 | 0.00 | 32 | 1006.9 |
| 20260831022818 | 101 | 271 | 3.0 | 6.0 | 0.00 | 0.00 | 0.00 | 32 | 1006.8 |
| 20260831021018 | 101 | 304 | 2.0 | 5.0 | 0.00 | 0.00 | 0.00 | 31 | 1006.3 |
| 20260831020118 | 102 | 254 | 3.0 | 5.0 | 0.00 | 0.00 | 0.00 | 31 | 1006.3 |
| 20260831015218 | 102 | 267 | 4.0 | 8.0 | 0.00 | 0.00 | 0.00 | 31 | 1006.2 |
| 20260831014318 | 102 | 260 | 3.0 | 8.0 | 0.00 | 0.00 | 0.00 | 30 | 1006.0 |
| 20260831013418 | 102 | 297 | 3.0 | 7.0 | 0.00 | 0.00 | 0.00 | 30 | 1005.8 |
| 20260831012518 | 103 | 308 | 2.0 | 10.0 | 0.00 | 0.00 | 0.00 | 30 | 1005.8 |
| 20260831011618 | 103 | 285 | 1.0 | 3.0 | 0.00 | 0.00 | 0.00 | 30 | 1005.8 |
| 20260831010718 | 103 | 281 | 1.0 | 4.0 | 0.00 | 0.00 | 0.00 | 30 | 1005.9 |
| 20260831004018 | 104 | 255 | 4.0 | 8.0 | 0.00 | 0.00 | 0.00 | 29 | 1006.2 |
| 20260831003118 | 104 | 262 | 4.0 | 13.0 | 0.00 | 0.00 | 0.00 | 29 | 1006.2 |
| 20260831002218 | 105 | 280 | 2.0 | 7.0 | 0.00 | 0.00 | 0.00 | 28 | 1006.1 |
| 20260831001318 | 104 | 44 | 2.0 | 5.0 | 0.00 | 0.00 | 0.00 | 28 | 1006.1 |
| 20260831000417 | 104 | 81 | 2.0 | 4.0 | 0.00 | 0.00 | 0.00 | 28 | 1006.3 |
| 20260830235517 | 104 | 358 | 2.0 | 7.0 | 0.00 | 0.00 | 0.00 | 28 | 1006.4 |
| 20260830234617 | 106 | 254 | 3.0 | 8.0 | 0.00 | 0.00 | 0.00 | 28 | 1006.4 |
| 20260830233718 | 106 | 263 | 5.0 | 9.0 | 0.00 | 0.00 | 0.00 | 28 | 1006.5 |
| 20260830232817 | 106 | 300 | 5.0 | 11.0 | 0.00 | 0.00 | 0.00 | 27 | 1006.6 |
| 20260830231918 | 106 | 293 | 6.0 | 11.0 | 0.00 | 0.00 | 0.00 | 27 | 1006.7 |
| 20260830231018 | 106 | 311 | 4.0 | 11.0 | 0.00 | 0.00 | 0.00 | 27 | 1006.8 |
| 20260830225218 | 107 | 303 | 3.0 | 9.0 | 0.00 | 0.00 | 0.00 | 27 | 1007.1 |
| 20260830223417 | 106 | 237 | 3.0 | 8.0 | 0.00 | 0.00 | 0.00 | 28 | 1007.5 |
| 20260830222517 | 107 | 259 | 4.0 | 10.0 | 0.00 | 0.00 | 0.00 | 27 | 1007.6 |
| 20260830221617 | 107 | 280 | 3.0 | 12.0 | 0.00 | 0.00 | 0.00 | 27 | 1007.7 |
| 20260830220717 | 106 | 340 | 3.0 | 8.0 | 0.00 | 0.00 | 0.00 | 27 | 1007.9 |
| 20260830215817 | 107 | 330 | 3.0 | 8.0 | 0.00 | 0.00 | 0.00 | 27 | 1008.2 |
| 20260830214917 | 106 | 239 | 3.0 | 9.0 | 0.00 | 0.00 | 0.00 | 27 | 1008.4 |
| 20260830213117 | 106 | 359 | 3.0 | 8.0 | 0.00 | 0.00 | 0.00 | 27 | 1008.9 |
| 20260830212218 | 105 | 91 | 4.0 | 10.0 | 0.00 | 0.00 | 0.00 | 28 | 1008.9 |
| 20260830211317 | 105 | 138 | 3.0 | 10.0 | 0.00 | 0.00 | 0.00 | 28 | 1009.1 |
| 20260830210417 | 105 | 176 | 3.0 | 7.0 | 0.00 | 0.00 | 0.00 | 28 | 1009.3 |
| 20260830205517 | 105 | 196 | 3.0 | 8.0 | 0.00 | 0.00 | 0.00 | 28 | 1009.4 |
| 20260830204617 | 106 | 253 | 3.0 | 8.0 | 0.00 | 0.00 | 0.00 | 28 | 1009.7 |
| 20260830203717 | 106 | 226 | 3.0 | 8.0 | 0.00 | 0.00 | 0.00 | 29 | 1009.9 |
| 20260830202817 | 104 | 161 | 3.0 | 11.0 | 0.00 | 0.00 | 0.00 | 30 | 1010.0 |
| 20260830201917 | 105 | 49 | 3.0 | 8.0 | 0.00 | 0.00 | 0.00 | 30 | 1010.2 |